Location: Gaska
(6.2717°N, 10.6769°W)
Time: 22:55:41
(UTC+00:00)

Daily predictions for brighter satellites

Satellite Brightness Start Highest point End
(mag) Time Altitude Azimuth Time Altitude Azimuth Time Altitude Azimuth
Ariane H10+ 2.1 18:47:19 10° W 18:49:50 85° S 18:58:32 10° E
Meteor 1-12 Rocket 4.5 18:49:07 10° S 18:54:57 83° W 19:00:40 10° N
Cosmos 2333 Rocket 3.9 18:57:39 10° NE 19:00:13 13° ENE 19:02:48 10° E
Cosmos 2056 Rocket 3.6 18:55:58 10° S 19:01:20 69° ESE 19:06:43 10° NNE
Cosmos 1544 3.2 18:58:55 10° S 19:02:29 80° W 19:06:03 10° N
Cosmos 1536 Rocket 3.9 19:02:26 10° NNE 19:06:32 41° E 19:10:38 10° SSE
GPS 2-04 Rocket1 4.4 19:08:23 10° W 19:11:28 26° NW 19:14:40 10° NNE
Cosmos 1624 Rocket 4.1 19:07:29 10° SSW 19:12:43 83° WNW 19:17:53 10° N
GP-B 3.5 19:09:05 10° NNE 19:13:14 41° E 19:17:24 10° SSE
USA 32 4.0 19:10:58 10° N 19:16:11 78° E 19:21:25 10° S
Cosmos 2322 Rocket 4.1 19:12:02 10° NW 19:17:02 34° WSW 19:22:04 10° SSW
Nadezhda 1 Rocket 4.2 19:12:58 10° S 19:19:02 74° W 19:25:05 10° N
Cosmos 2184 Rocket 4.0 19:14:38 10° N 19:20:50 60° E 19:27:06 10° SSE
Palapa 6 Rocket 4.4 19:13:18 10° SW 19:20:59 61° SSE 19:26:25 16° E
SAR-Lupe-2 3.9 19:18:30 10° NNE 19:21:50 41° ESE 19:25:10 10° S
Cosmos 2082 3.6 19:20:12 10° S 19:25:53 73° ESE 19:31:34 10° NNE
ASTEX 1 4.0 19:22:48 10° NNE 19:27:10 33° E 19:31:34 10° SSE
OPS 6431 4.4 19:24:20 10° NNW 19:27:23 72° ENE 19:30:26 10° SSE
Cosmos 2219 Rocket 3.0 19:25:47 10° NNE 19:30:28 27° ENE 19:33:33 17° ESE
SL-4 R/B 2.8 19:27:12 10° SW 19:31:16 50° NW 19:35:02 10° NNE
ARIANE 5 DEB (SYLDA 5A) 4.1 19:30:18 10° WSW 19:33:58 48° SSE 19:43:06 19° ESE
Hubble Space Telescope 2.5 19:32:09 10° S 19:34:52 17° SSE 19:35:33 16° SE
YAOGAN 6 2.8 19:32:51 10° S 19:36:27 74° W 19:40:05 10° NNW
Cosmos 1544 Rocket 4.3 19:32:37 10° SSE 19:36:30 30° E 19:40:22 10° NNE
Cosmos 1455 Rocket 3.4 19:32:32 10° SSE 19:36:37 39° E 19:40:44 10° NNE
Cosmos 2333 4.3 19:31:49 10° N 19:37:25 57° ENE 19:43:02 10° SSE
CZ-2D R/B 3.8 19:35:22 18° SE 19:37:39 34° ENE 19:41:07 10° NNE
CZ-4 R/B 1.9 19:35:15 10° S 19:39:00 57° WSW 19:42:49 10° NNW
Cosmos 2227 Rocket 3.5 19:35:18 10° SW 19:40:34 41° WNW 19:45:51 10° N
ATLAS 2AS CENTAUR R/B 3.6 19:37:20 10° NNE 19:42:42 23° ENE 19:43:29 23° ENE
Envisat 4.1 19:39:49 10° S 19:44:39 45° WSW 19:49:29 10° NNW
Cosmos 2360 Rocket 3.4 19:39:40 10° NNW 19:45:00 44° WSW 19:50:21 10° S
Cosmos 2327 Rocket 4.3 19:39:00 10° N 19:45:05 74° E 19:51:08 10° S
Cosmos 2322 3.8 19:43:17 10° NNW 19:48:58 81° WSW 19:54:39 10° SSE
Cosmos 2297 Rocket 4.2 19:45:53 10° SW 19:50:45 30° WNW 19:55:36 10° NNW
Lacrosse 5 2.8 19:45:58 10° SW 19:50:51 48° WNW 19:55:45 10° NNE
COSMOS 2428 2.9 19:45:34 10° N 19:51:01 48° ENE 19:54:08 24° SE
CZ-3 Stage 3 3.9 19:48:52 10° W 19:53:01 15° NW 19:55:18 10° N
Cosmos 1452 Rocket 3.4 19:50:20 10° S 19:55:35 79° ESE 20:00:49 10° NNE
CZ-3 Stage 3 4.0 19:50:47 10° W 19:56:09 25° NW 19:57:42 16° N
Cosmos 405 Rocket 4.1 19:57:43 10° SSW 20:01:09 37° W 20:04:34 10° NNW
ATLAS CENTAUR R/B 1.6 19:58:43 10° SSW 20:03:23 88° ESE 20:05:58 28° NNE
Cosmos 1939 Rocket 2.6 20:05:36 80° NNE 20:05:36 80° NNE 20:09:17 10° N
ARIANE 5 DEB (SYLDA) 4.0 20:04:51 10° WSW 20:11:07 41° S 20:11:48 39° SSE
Cosmos 2181 Rocket 4.1 20:06:01 10° S 20:12:10 73° W 20:18:22 10° N
Kakehashi 4.2 20:01:32 10° WNW 20:18:12 82° NNE 20:20:30 48° ESE
Aureole 1 Rocket 4.2 20:16:31 10° NW 20:18:32 27° WNW 20:18:32 27° WNW
Centaur AC-102 4.2 20:05:37 10° W 20:23:22 61° NNW 20:25:10 44° NE
SWIFT 4.4 20:22:50 10° WSW 20:25:43 20° SSW 20:25:43 20° SSW
Ariane Rocket 3.3 20:23:19 19° S 20:26:58 64° WSW 20:31:57 10° NNW
CZ-3B R/B 3.5 20:07:22 10° SW 20:28:26 69° SSE 20:32:19 49° E
Ariane H10 3.6 20:27:43 10° W 20:30:44 77° WNW 20:30:44 77° WNW
COSMOS 2455 4.2 20:27:12 10° NW 20:32:37 37° WSW 20:38:04 10° S
Cosmos 2341 Rocket 3.9 20:30:19 10° N 20:36:31 86° W 20:36:54 79° SSW
Cosmos 1818 4.1 20:33:59 10° SSW 20:38:04 51° SW 20:38:04 51° SW
Atlas Centaur 2 3.9 20:39:21 10° WSW 20:39:58 14° WSW 20:39:58 14° WSW
Cosmos 2237 Rocket 4.4 20:38:20 10° N 20:38:53 13° N 20:38:53 13° N
Cosmos 2333 Rocket 3.2 20:38:55 10° NW 20:44:19 44° WSW 20:46:34 30° SSW
Gbstr 26 Del rocket 4.3 20:39:57 10° SW 20:45:05 53° NW 20:45:17 53° NW
ADEOS Rocket 4.0 20:44:27 10° N 20:52:03 60° WNW 20:59:30 10° SSW
Cosmos 2219 Rocket 4.4 21:10:05 10° WNW 21:14:06 20° WSW 21:15:27 19° WSW
ATLAS 2AS CENTAUR R/B 4.3 21:27:20 10° NW 21:31:01 27° WNW 21:31:01 27° WNW
